Other Public Products
Issued by NWS Charleston, SC

Current Version | Previous Version | Graphics & Text | Print | Product List | Glossary On
Versions: 1 2 3 4 5 6 7 8 9 10 11 12 13 14 15 16 17 18 19 20 21 22 23 24 25 26 27 28 29 30 31 32 33 34 35 36 37 38 39 40 41 42 43 44 45 46 47 48 49 50
035 FPUS82 KCHS 121226 OPUCHS TEST...KCHS/KSAV Gateway Observations...TEST National Weather Service Charleston SC 700 AM EST TUE DEC 12 2017 NOTE: "fair" indicates few or no clouds below 12,000 feet with no significant weather and/or obstructions to visibility. SCZ050-WAZ558-NCZ071-TXZ119-213-PAZ071-DCZ001-FLZ074-172-MI076- NYZ176-178-MAZ016-IL014-TNZ027-NJZ106-GAZ044-MD014-121300- ...Gateway Observations for Charleston International... CITY SKY/WX TMP DP RH WIND PRES REMARKS Chas Airport CLEAR 44 38 79 SW10 29.88S 6HR MIN TEMP: 42; 6HR MAX TEMP: 46; Seattle MOCLDY 35 24 64 CALM 30.44F 6HR MIN TEMP: 32; 6HR MAX TEMP: 40; Charlotte MOCLDY 42 35 76 SW6 29.75S 6HR MIN TEMP: 41; 6HR MAX TEMP: 44; Dallas DFW PTCLDY 47 29 49 N14G23 30.34R 6HR MIN TEMP: 47; 6HR MAX TEMP: 57; 6HR PCP: TRACE; Dallas Love CLEAR 47 28 47 N15 30.35R 6HR MIN TEMP: 47; 6HR MAX TEMP: 56; Philladelphia CLOUDY 45 35 68 S10 29.65F 6HR MIN TEMP: 36; 6HR MAX TEMP: 45; Wash National CLOUDY 42 32 67 S13 29.62F 6HR MIN TEMP: 41; 6HR MAX TEMP: 43; Baltimore CLOUDY 40 32 73 S3 29.61F 6HR MIN TEMP: 40; 6HR MAX TEMP: 42; Miami PTCLDY 53 48 83 NW3 30.12R 6HR MIN TEMP: 48; 6HR MAX TEMP: 55; Detroit FLURRIES 24 11 57 NW22G32 29.79R WCI 9 6HR MIN TEMP: 24; 6HR MAX TEMP: 32; 6HR PCP: 0.01; Newark CLOUDY 46 38 73 S10 29.66F 6HR MIN TEMP: 39; 6HR MAX TEMP: 46; 6HR PCP: TRACE; Laguardia CLOUDY 48 38 68 S16G22 29.67F 6HR MIN TEMP: 39; 6HR MAX TEMP: 48; J F K LGT RAIN 47 40 76 S22G29 29.69F 6HR MIN TEMP: 39; 6HR MAX TEMP: 47; 6HR PCP: TRACE; Boston Logan CLOUDY 38 31 76 SE15 29.83F WCI 29 6HR MIN TEMP: 35; 6HR MAX TEMP: 38; Ft. Lauderdale PTCLDY 50 47 89 NW6 30.11R 6HR MIN TEMP: 50; 6HR MAX TEMP: 53; Chicago O`Hare PTCLDY 19 7 59 NW14G26 30.04R WCI 6 6HR MIN TEMP: 19; 6HR MAX TEMP: 31; 6HR PCP: 0.01; Chicago Midway PTCLDY 20 9 62 NW14 30.05R WCI 7 6HR MIN TEMP: 20; 6HR MAX TEMP: 32; 6HR PCP: TRACE; Houston Bush PTCLDY 49 33 54 NW5 30.25R 6HR MIN TEMP: 48; 6HR MAX TEMP: 56; Houston Hobby PTCLDY 50 36 58 N10 30.24R 6HR MIN TEMP: 47; 6HR MAX TEMP: 53; Nashville CLOUDY 43 33 68 N16G23 29.99R 6HR MIN TEMP: 43; 6HR MAX TEMP: 49; Atlanta MOCLDY 42 37 82 W10 29.86R 6HR MIN TEMP: 42; 6HR MAX TEMP: 48; $$ GAZ044-118-TXZ119-213-NCZ071-DCZ001-MDZ014-506-PAZ021-071-NJZ106- NYZ176-178-MAZ106-OHZ011-021-055-MIZ076-KYZ091-ILZ014-INZ047- MNZ060-ONZ431-121300- ...Gateway Observations for Savannah International... CITY SKY/WX TMP DP RH WIND PRES REMARKS Savannah Arpt CLEAR 43 40 89 SW7 29.91F 6HR MIN TEMP: 42; 6HR MAX TEMP: 47; Atlanta MOCLDY 42 37 82 W10 29.86R 6HR MIN TEMP: 42; 6HR MAX TEMP: 48; Charlotte MOCLDY 42 35 76 SW6 29.75S 6HR MIN TEMP: 41; 6HR MAX TEMP: 44; Dallas DFW PTCLDY 47 29 49 N14G23 30.34R 6HR MIN TEMP: 47; 6HR MAX TEMP: 57; 6HR PCP: TRACE; Houston Bush PTCLDY 49 33 54 NW5 30.25R 6HR MIN TEMP: 48; 6HR MAX TEMP: 56; Wash National CLOUDY 42 32 67 S13 29.62F 6HR MIN TEMP: 41; 6HR MAX TEMP: 43; Wash Dulles CLOUDY 38 31 76 S8 29.60F WCI 32 6HR MIN TEMP: 38; 6HR MAX TEMP: 40; Baltimore CLOUDY 40 32 73 S3 29.61F 6HR MIN TEMP: 40; 6HR MAX TEMP: 42; Philadelphia CLOUDY 45 35 68 S10 29.65F 6HR MIN TEMP: 36; 6HR MAX TEMP: 45; Newark CLOUDY 46 38 73 S10 29.66F 6HR MIN TEMP: 39; 6HR MAX TEMP: 46; 6HR PCP: TRACE; Laguardia CLOUDY 48 38 68 S16G22 29.67F 6HR MIN TEMP: 39; 6HR MAX TEMP: 48; J F K LGT RAIN 47 40 76 S22G29 29.69F 6HR MIN TEMP: 39; 6HR MAX TEMP: 47; 6HR PCP: TRACE; Boston CLOUDY 38 31 76 SE15 29.83F WCI 29 6HR MIN TEMP: 35; 6HR MAX TEMP: 38; Pittsburg LGT SNOW 34 31 88 W14G23 29.62R VSB 1 WCI 25 6HR MIN TEMP: 35; 6HR MAX TEMP: 43; 6HR PCP: 0.01; Akron LGT SNOW 31 27 85 NW12G25 29.65R VSB 1 WCI 22 6HR MIN TEMP: 31; 6HR MAX TEMP: 35; 6HR PCP: 0.06; Cleveland FLURRIES 30 23 75 NW20 29.72R WCI 17 6HR MIN TEMP: 30; 6HR MAX TEMP: 34; 6HR PCP: 0.11; Cincinnati LGT SNOW 32 31 96 NW16G26 29.87R VSB 1 WCI 21 6HR MIN TEMP: 32; 6HR MAX TEMP: 40; 6HR PCP: 0.01; Columbus LGT SNOW 31 29 93 NW13 29.78R WCI 22 Detroit FLURRIES 24 11 57 NW22G32 29.79R WCI 9 6HR MIN TEMP: 24; 6HR MAX TEMP: 32; 6HR PCP: 0.01; Chicago O`Hare PTCLDY 19 7 59 NW14G26 30.04R WCI 6 6HR MIN TEMP: 19; 6HR MAX TEMP: 31; 6HR PCP: 0.01; Minneapolis CLOUDY 7 3 84 NW10 30.24F WCI -8 6HR MIN TEMP: 7; 6HR MAX TEMP: 16; Indianapolis MOCLDY 28 18 66 NW16 29.96R WCI 16 6HR MIN TEMP: 28; 6HR MAX TEMP: 35; 6HR PCP: TRACE; Toronto Canada LGT SNOW 27 25 93 W8 29.51S WCI 18 $$

USA.gov is the U.S. government's official web portal to all federal, state and local government web resources and services.